Location: Cary
(35.7910°N, 78.7810°W)
Time: 12:44:19
(UTC-05:00)

N. Korean satellite - Pass Details

Date: 02 December 2021
Orbit: 447 x 491 km, 97.3° (Epoch: 25 January)

Event Time Altitude Azimuth Distance (km) Brightness Sun altitude
Rises 05:33:59 0° 8° (N) 2,459 10.1 -18.6°
Reaches altitude 10° 05:36:02 10° 6° (N) 1,580 9.1 -18.2°
Maximum altitude 05:39:23 68° 283° (WNW) 484 6.2 -17.6°
Drops below altitude 10° 05:42:43 10° 200° (SSW) 1,565 9.1 -16.9°
Sets 05:44:44 0° 198° (SSW) 2,434 10.1 -16.5°
